OpenBCM V1.13 (Linux)

Packet Radio Mailbox

DB0FHN

[JN59NK Nuernberg]

 Login: GUEST





  
LU9DCE > KEP      07.06.19 22:04l 244 Lines 12040 Bytes #999 (0) @ WW
BID : 26275_LU9DCE
Read: DF7EAV DJ6UX GUEST
Subj: TLE 07 06
Path: DB0FHN<DB0BLO<DB0ERF<IZ3LSV<IK6ZDE<IW0QNL<JH4XSY<N3HYM<LU9DCE
Sent: 190607/1937Z 26275@LU9DCE.TOR.BA.ARG.SOAM LinBPQ6.0.18

            __    _  _  ___  ____   ___  ____    ____  ____  ____
           (  )  / )( \/ _ \(    \ / __)(  __)  (  _ \(  _ \/ ___)
           / (_/\) \/ (\__  )) D (( (__  ) _)    ) _ ( ) _ (\___ \
           \____/\____/(___/(____/ \___)(____)  (____/(____/(____/
               ESTACION DE PACKET RADIO - BUENOS AIRES (GF05OM)
                   BOLETINES INFORMATIVOS PROGRAMADOS (BIP)
                  SLACKWARE LINUX - HELLOCODELINUX@GMAIL.COM

+----------------------------------------------------------------------------+
OSCAR 7
1  7530U 74089B   19158.39396392 -.00000029  00000-0  97300-4 0  9996
2  7530 101.7429 126.1709 0012344  11.0797 142.0296 12.53638401 39106
OSCAR 11 (UoSAT 2)
1 14781U 84021B   19158.29802630  .00000040  00000-0  11074-4 0  9991
2 14781  97.6114 183.5552 0008576   8.0903 352.0448 14.83088547897071
OSCAR 19 (LUSAT)
1 20442U 90005G   19158.42695969 -.00000010  00000-0  12684-4 0  9997
2 20442  98.6480 100.4462 0011710 177.0748 183.0506 14.32926198534763
EYESAT A
1 22825U 93061C   19157.18579653 -.00000023  00000-0  92036-5 0  9996
2 22825  98.9025 145.5378 0009133  41.2877 318.8993 14.30059734340163
ITAMSAT
1 22826U 93061D   19158.44948297 -.00000011  00000-0  13476-4 0  9998
2 22826  98.8966 146.8231 0009422  27.1661 333.0012 14.30393351340543
RADIO ROSTO
1 23439U 94085A   19158.42979431 -.00000047  00000-0 -12095-3 0  9993
2 23439  64.8140 134.3361 0146267 115.4205 246.1937 11.27568101  6786
JAS 2
1 24278U 96046B   19158.38383154 -.00000009  00000-0  29708-4 0  9997
2 24278  98.5354 313.3291 0349261 269.3455  86.7662 13.53091514126275
TECHSAT 1B
1 25397U 98043D   19158.37455967 -.00000013  00000-0  13479-4 0  9993
2 25397  98.6883  98.6561 0002412  78.2388 281.9061 14.23666190 86267
ISS (ZARYA)
1 25544U 98067A   19158.50658565  .00001063  00000-0  25688-4 0  9997
2 25544  51.6446  49.3426 0007931  23.4918 342.8754 15.51176656173752
PCSAT
1 26931U 01043C   19158.10465408 -.00000038  00000-0  17382-4 0  9998
2 26931  67.0524  33.5816 0006549 279.7976  80.2386 14.30543734923313
SAUDISAT 1C
1 27607U 02058C   19158.29606564 -.00000034  00000-0  16092-4 0  9999
2 27607  64.5555  84.4366 0081696 258.7354 100.4559 14.75550522885358
CUTE-1
1 27844U 03031E   19158.46665540  .00000028  00000-0  32316-4 0  9991
2 27844  98.6837 166.8481 0011005  66.8948 293.3388 14.22179682826699
CUBESAT XI 4
1 27848U 03031J   19157.96297593  .00000022  00000-0  29795-4 0  9999
2 27848  98.6915 166.8496 0010967  78.3326 281.9081 14.21774445826476
MOZHAYETS 4
1 27939U 03042A   19158.45118023  .00000052  00000-0  17800-4 0  9994
2 27939  98.0386 294.4871 0014239 102.1987 258.0817 14.66782921838891
CUBESAT XI 5
1 28895U 05043F   19158.36531396  .00000078  00000-0  23856-4 0  9997
2 28895  97.9576 301.4857 0017427  31.9825 328.2432 14.63665513725822
CUTE-1.7+APD II
1 32785U 08021C   19158.39050888  .00000156  00000-0  22496-4 0  9990
2 32785  97.5492 158.6381 0011712 304.8655  55.1461 14.88306146602009
DELFI C3
1 32789U 08021G   19158.19698488  .00000812  00000-0  58321-4 0  9991
2 32789  97.4652 208.2093 0013005 157.4815 202.6986 15.06929196605235
SEEDS
1 32791U 08021J   19158.02526818  .00000351  00000-0  41027-4 0  9996
2 32791  97.5278 164.2517 0011726 278.0372  81.9516 14.90814086602373
YUBELEINY
1 32953U 08025A   19158.45732008  .00000021  00000-0  75656-4 0  9996
2 32953  82.5007 151.7519 0019643 149.7652 210.4570 12.43089954500911
PRISM (HITOMI)
1 33493U 09002B   19158.36346525 -.00000024  00000-0  35137-5 0  9992
2 33493  98.1222  78.8886 0014124 217.8392 142.1836 14.96641301563450
KKS-1 (KISEKI)
1 33499U 09002H   19158.48494424  .00000075  00000-0  19164-4 0  9999
2 33499  98.3509 356.8354 0008023 238.3170 121.7256 14.75439135557570
SWISSCUBE
1 35932U 09051B   19158.39747476  .00000093  00000-0  31974-4 0  9998
2 35932  98.5869 324.0407 0007380 190.9398 169.1640 14.56281646515131
BEESAT
1 35933U 09051C   19158.40113815  .00000073  00000-0  27378-4 0  9996
2 35933  98.5897 325.7975 0005318 201.8975 158.1996 14.56371163515241
ITUPSAT 1
1 35935U 09051E   19158.38355848  .00000075  00000-0  28355-4 0  9997
2 35935  98.6007 326.0182 0007662 202.3996 157.6867 14.55531782514990
XIWANG-1 (HOPE-1)
1 36122U 09072B   19158.41104905 -.00000025  00000-0  44341-4 0  9998
2 36122 100.0723 161.3205 0007898  16.7529 343.3851 13.16350067455394
TISAT 1
1 36799U 10035E   19158.40855440  .00000152  00000-0  21421-4 0  9999
2 36799  98.1544 310.1878 0013579 120.1799 240.0765 14.91095796483087
JUGNU
1 37839U 11058B   19158.02256435  .00000297  00000-0  16602-4 0  9993
2 37839  19.9623  45.5370 0018982 198.2208 289.9003 14.12651797395601
SRMSAT
1 37841U 11058D   19158.19770274  .00000282  00000-0  99908-5 0  9991
2 37841  19.9717 101.0109 0011953  71.1066  63.5916 14.10633024395068
M-CUBED/EXP-1 PRIME
1 37855U 11061F   19158.23459890  .00001080  00000-0  61731-4 0  9992
2 37855 101.7162  47.9531 0173774 110.7558 251.2371 15.05385012415059
HORYU 2
1 38340U 12025D   19158.32002060  .00000141  00000-0  28676-4 0  9994
2 38340  98.3298 196.5693 0012148 154.5341 205.6468 14.75715125379487
STRAND 1
1 39090U 13009E   19158.14249920  .00000014  00000-0  20197-4 0  9997
2 39090  98.4894   4.2950 0008535 330.5004  29.5698 14.35085769328731
SOMP
1 39134U 13015E   19158.11020254  .00000852  00000-0  48326-4 0  9991
2 39134  64.8643  57.9591 0029312 305.5268  54.3126 15.20129802338831
BEESAT 3
1 39135U 13015F   19158.20955467  .00000888  00000-0  53874-4 0  9998
2 39135  64.8687  75.7731 0019326 324.0281  35.9543 15.17440472338506
BEESAT 2
1 39136U 13015G   19158.17629834  .00000695  00000-0  45045-4 0  9998
2 39136  64.8696  79.6682 0018817 303.3537  56.5787 15.16871241338424
CUBEBUG 1
1 39153U 13018D   19158.27406127  .00000138  00000-0  24979-4 0  9994
2 39153  97.9775 256.4636 0015842 232.3924 127.5850 14.80562587330127
ZACUBE
1 39417U 13066B   19158.42286071  .00000160  00000-0  26340-4 0  9990
2 39417  97.5627 172.5579 0060506  71.5133 289.2643 14.81109627299378
TRITON 1
1 39427U 13066M   19158.41196332  .00000152  00000-0  32298-4 0  9990
2 39427  97.6752 136.4879 0113189 200.9008 158.7552 14.67835064296681
GOMX 1
1 39430U 13066Q   19158.37704705  .00000152  00000-0  36963-4 0  9991
2 39430  97.7458 115.6732 0150006 290.2611  68.2528 14.59248002294954
HUMSAT D
1 39433U 13066T   19158.07989274  .00000498  00000-0  53905-4 0  9995
2 39433  97.5544 206.0594 0030143 342.4240  17.5934 14.92181107301348
CUBEBUG 2
1 39440U 13066AA  19158.42875456  .00000153  00000-0  28045-4 0  9993
2 39440  97.6017 157.5315 0081642 120.9837 239.9426 14.75848075298317
FUNCUBE 1
1 39444U 13066AE  19158.29460033  .00000213  00000-0  32382-4 0  9999
2 39444  97.5608 174.3710 0059570  66.0454 294.6982 14.81926930298243
UWE-3
1 39446U 13066AG  19157.97841163  .00000154  00000-0  26879-4 0  9990
2 39446  97.5811 164.1157 0071655  98.1113 262.8236 14.78382230297534
SPROUT
1 39770U 14029E   19158.53102379  .00000571  00000-0  69357-4 0  9993
2 39770  97.8840 261.8981 0010428 117.8729 242.3576 14.87325832273171
UNISAT 6
1 40012U 14033C   19158.20318202  .00000139  00000-0  27950-4 0  9990
2 40012  97.7591  25.3095 0059358 133.8851 226.7282 14.73972560266995
DUCHIFAT 1
1 40021U 14033M   19158.33380637  .00000405  00000-0  47138-4 0  9991
2 40021  97.9242  82.8898 0014459  87.3914 272.8959 14.90618385269857
QB50P1
1 40025U 14033R   19158.34289862  .00000200  00000-0  27219-4 0  9995
2 40025  97.9064  78.0450 0013946  95.9419 264.3387 14.88935211269633
CHUBUSAT 1
1 40300U 14070C   19158.27807293  .00000537  00000-0  26350-4 0  9996
2 40300  97.3263 232.7457 0021262  93.7441 307.2799 15.22068240254288
NUDT-PHONESAT
1 40900U 15049B   19158.48366624  .00001610  00000-0  71948-4 0  9996
2 40900  97.4366 167.9296 0011491 219.0315 296.0172 15.22734290205950
ZDPS 2A
1 40901U 15049C   19158.53900209  .00000750  00000-0  40497-4 0  9995
2 40901  97.4586 164.5236 0011694 240.0559 236.2361 15.17703231205547
ZDPS 2B
1 40902U 15049D   19158.56228152  .00000766  00000-0  41530-4 0  9995
2 40902  97.4532 162.0737 0011877 236.6975 236.2035 15.17509200205520
XW-2A
1 40903U 15049E   19158.42192521  .00001529  00000-0  38058-4 0  9990
2 40903  97.3377 201.1215 0013393 178.6406 277.7816 15.41797459208513
KAITUO 1A
1 40904U 15049F   19158.57772600  .00000076  00000-0  75408-5 0  9996
2 40904  97.4656 160.7770 0012916 244.0755 230.6598 15.15349233205310
OBJECT G
1 40905U 15049G   19158.58399664  .00000237  00000-0  16521-4 0  9992
2 40905  97.4695 158.3535 0014138 238.6541 235.3796 15.14279900205196
XW-2C
1 40906U 15049H   19158.58136550  .00000232  00000-0  15683-4 0  9999
2 40906  97.4660 160.8436 0013320 235.3402 241.3961 15.15654927205311
XW-2D
1 40907U 15049J   19158.56049333  .00000388  00000-0  23758-4 0  9994
2 40907  97.4643 160.5018 0012594 232.5752 244.9264 15.15841475205327
LILACSAT 2
1 40908U 15049K   19157.36804212 -.00000067  00000-0 -76235-7 0  9994
2 40908  97.4775 158.2065 0014351 243.8508 223.6542 15.13787136204948
XW-2F
1 40910U 15049M   19158.39935134  .00000914  00000-0  49225-4 0  9994
2 40910  97.4613 162.2971 0013239 225.7752 242.6150 15.17266128205301
XW-2B
1 40911U 15049N   19158.52655625  .00000534  00000-0  31413-4 0  9992
2 40911  97.4667 161.1127 0012543 232.7243 244.3750 15.15773788205210
KAITUO 1B
1 40912U 15049P   19158.45142146  .00000670  00000-0  34664-4 0  9996
2 40912  97.4490 165.9516 0013954 206.5095 283.3397 15.19570259205605
TIANWANG 1C (TW-1C)
1 40926U 15051B   19158.52506972  .00010110  00000-0  14920-3 0  9995
2 40926  97.1358 204.7152 0009850  60.2115  45.7489 15.55502656208427
